[[{"header":{"parameterUnit":"m.s-1","parameterCategory":1,"la1":30.2991,"la2":30.254,"lo1":-89.0895,"lo2":-89.0444,"dy":0.0017,"dx":0.0017,"nx":28,"ny":28,"refTime":"2024-03-14T21:00:00:Z","depth":0,"parameterNumber":2,"parameterNumberName":"U-component_of_WINDS"},"data":[0,0,0,0,0,0,0,0,0,0,0,0,0,0,0,0,0,0,0,0,0,0,0,0,0,0,0,0,0,0,0,0,0,0,0,0,0,0,0,0,0,0,0,0,0,0,0,0,0,0,0,0,0,0,0,0,0,0,-0.641,-0.6411,0,-0.6446,-0.6447,-0.6447,-0.6441,-0.644,-0.6439,-0.6439,-0.6476,-0.6478,-0.6479,0,0,0,0,0,0,0,0,0,0,0,0,0,-0.6336,-0.6337,-0.641,-0.6411,-0.6411,-0.6446,-0.6447,-0.6447,-0.6441,-0.644,-0.6439,-0.6438,-0.6476,-0.6478,-0.648,0,0,0,0,0,0,0,0,0,0,0,0,0,-0.637,-0.6337,-0.641,-0.6412,-0.6413,-0.6446,-0.6447,-0.6447,-0.6441,-0.644,-0.6439,-0.6438,-0.6475,-0.6478,-0.648,-0.6514,0,0,-0.6487,-0.6488,0,0,0,0,0,0,0,0,-0.6368,-0.6372,-0.6411,-0.6412,-0.6413,-0.6438,-0.6434,-0.647,-0.6441,-0.643,-0.6439,-0.6438,-0.6464,-0.6468,-0.6477,-0.6516,-0.6517,-0.6487,-0.6489,-0.649,-0.6491,0,0,0,0,0,0,0,-0.6365,-0.6371,-0.6424,-0.6412,-0.6413,-0.6411,-0.6415,-0.6441,-0.6452,-0.6431,-0.6431,-0.6435,-0.6465,-0.6474,-0.6477,-0.6518,-0.6487,-0.649,-0.6491,-0.6492,-0.6586,-0.6587,0,0,0,0,0,0,-0.6362,-0.6369,-0.6423,-0.6426,-0.6387,-0.6413,-0.6418,-0.6431,-0.6452,-0.6454,-0.6436,-0.6435,-0.6471,-0.6475,-0.6479,-0.6519,-0.649,-0.6492,-0.6494,-0.6585,-0.6587,-0.6588,0,0,0,0,0,0,-0.6361,-0.6367,-0.6422,-0.6397,-0.6404,-0.6416,-0.6431,-0.6432,-0.6442,-0.6456,-0.6458,-0.6444,-0.647,-0.6475,-0.6505,-0.652,-0.6493,-0.6495,-0.6584,-0.6586,-0.6587,-0.6601,0,0,0,0,0,0,-0.6359,-0.6367,-0.638,-0.6397,-0.6405,-0.6448,-0.6432,-0.6433,-0.6446,-0.6445,-0.6463,-0.6466,-0.647,-0.6502,-0.6507,-0.6523,-0.6497,-0.6583,-0.6585,-0.6587,-0.6599,-0.6603,-0.6606,0,0,0,0,0,-0.6356,-0.6382,-0.638,-0.6387,-0.6422,-0.6448,-0.6453,-0.6457,-0.6447,-0.646,-0.6469,-0.6465,-0.6518,-0.6505,-0.6511,-0.6528,-0.6582,-0.6584,-0.6587,-0.6598,-0.6602,-0.6606,0,0,0,0,0,0,-0.6366,-0.6385,-0.6383,-0.6416,-0.643,-0.6447,-0.6464,-0.6462,-0.648,-0.6478,-0.6482,-0.6487,-0.6517,-0.6526,-0.651,-0.6562,-0.6549,-0.6552,-0.6555,-0.6559,-0.6562,-0.6559,-0.6499,0,0,0,0,0,-0.6372,-0.6392,-0.6408,-0.6435,-0.6443,-0.6452,-0.6464,-0.6466,-0.6481,-0.6488,-0.6499,-0.6514,-0.6534,-0.6547,-0.6567,-0.6601,-0.6604,-0.6616,-0.6619,-0.6622,-0.6625,-0.6642,-0.6647,-0.6596,-0.6596,-0.6596,0,0,-0.6385,-0.6398,-0.641,-0.6438,-0.6449,-0.647,-0.6457,-0.648,-0.6495,-0.6491,-0.6519,-0.6528,-0.6546,-0.6578,-0.6592,-0.6586,-0.664,-0.6625,-0.6627,-0.6628,-0.6645,-0.665,-0.6655,-0.6597,-0.6597,-0.6597,0,0,-0.6419,-0.6431,-0.6454,-0.6466,-0.6484,-0.649,-0.6496,-0.6513,-0.6519,-0.6547,-0.6545,-0.6563,-0.6598,-0.661,-0.6621,-0.6659,-0.6656,-0.6666,-0.6683,-0.67,-0.6704,-0.6708,-0.672,-0.6725,-0.6669,-0.6669,-0.6669,0,-0.6432,-0.6463,-0.6467,-0.6489,-0.6501,-0.6499,-0.6523,-0.6534,-0.6558,-0.6566,-0.6559,-0.6602,-0.6614,-0.6648,-0.6657,-0.6666,-0.6673,-0.6663,-0.6703,-0.6707,-0.671,-0.6722,-0.6727,-0.667,-0.667,-0.667,-0.6669,0,-0.6478,-0.65,-0.6517,-0.6539,-0.6553,-0.6576,-0.6583,-0.6597,-0.6598,-0.6605,-0.6634,-0.6648,-0.667,-0.6678,-0.668,-0.6713,-0.6708,-0.6702,-0.6689,-0.6716,-0.6728,-0.6732,-0.6671,-0.6671,-0.6671,-0.667,0,0,-0.6518,-0.6542,-0.6548,-0.6558,-0.6578,-0.6594,-0.6617,-0.6638,-0.665,-0.6666,-0.6685,-0.6715,-0.6709,-0.6721,-0.6724,-0.674,-0.6768,-0.6732,-0.6732,-0.6737,-0.6804,-0.6807,-0.6813,-0.6766,-0.6767,-0.6768,-0.6802,0,-0.6553,-0.6593,-0.6597,-0.6633,-0.6652,-0.665,-0.667,-0.6684,-0.6692,-0.6709,-0.6717,-0.6738,-0.673,-0.6737,-0.6752,-0.6761,-0.6781,-0.6759,-0.6783,-0.6784,-0.6777,-0.6819,-0.6822,-0.6854,-0.6807,-0.6807,-0.6808,0,-0.6598,-0.6615,-0.6652,-0.6668,-0.6677,-0.6695,-0.6714,-0.6731,-0.6747,-0.6751,-0.6765,-0.6766,-0.6789,-0.6776,-0.6808,-0.6793,-0.6804,-0.681,-0.6811,-0.6812,-0.6797,-0.682,-0.6864,-0.6868,-0.6815,-0.6815,-0.6814,0,-0.6622,-0.6654,-0.668,-0.6689,-0.6709,-0.6721,-0.673,-0.6746,-0.6758,-0.6775,-0.6783,-0.6803,-0.6813,-0.6829,-0.6835,-0.6825,-0.6867,-0.6854,-0.687,-0.687,-0.6878,-0.6877,-0.6923,-0.6887,-0.6887,-0.6887,-0.6887,0,-0.6659,-0.6681,-0.6691,-0.6707,-0.6733,-0.6738,-0.6763,-0.6771,-0.6785,-0.6803,-0.6803,-0.682,-0.6827,-0.6845,-0.685,-0.6876,-0.6881,-0.6885,-0.6886,-0.6884,-0.6883,-0.689,-0.6887,-0.6889,-0.6888,-0.6888,-0.6888,0,-0.6689,-0.6697,-0.6725,-0.6742,-0.6746,-0.6764,-0.6778,-0.6794,-0.6801,-0.6823,-0.6829,-0.684,-0.6861,-0.6869,-0.6895,-0.6899,-0.6928,-0.6928,-0.6922,-0.6922,-0.6937,-0.6935,-0.6988,-0.6995,-0.6956,-0.6956,-0.6956,0,-0.6711,-0.6729,-0.6747,-0.6758,-0.6767,-0.6787,-0.6799,-0.6805,-0.6818,-0.6837,-0.685,-0.6871,-0.6888,-0.6922,-0.6932,-0.6952,-0.6952,-0.6969,-0.6955,-0.6952,-0.695,-0.6949,-0.695,-0.6971,-0.6971,-0.6972,-0.6972,0,-0.675,-0.6753,-0.677,-0.6789,-0.6803,-0.6818,-0.6833,-0.6843,-0.6851,-0.6866,-0.6887,-0.69,-0.6926,-0.6947,-0.6967,-0.6977,-0.6975,-0.6977,-0.6981,-0.6979,-0.6974,-0.6976,-0.6928,-0.6975,-0.6975,-0.6974,-0.6974,-0.6974,-0.6776,-0.6791,-0.6806,-0.6825,-0.6837,-0.685,-0.6865,-0.6874,-0.6892,-0.6913,-0.6916,-0.6939,-0.6955,-0.6981,-0.6992,-0.701,-0.7005,-0.7012,-0.7014,-0.7015,-0.7015,-0.6973,-0.7014,-0.7014,-0.7014,-0.7014,-0.7013,0,-0.6813,-0.6822,-0.684,-0.686,-0.6876,-0.6874,-0.689,-0.6903,-0.6922,-0.6937,-0.6953,-0.6978,-0.6998,-0.701,-0.703,-0.7042,-0.7042,-0.7047,-0.7045,-0.7047,-0.7019,-0.7012,-0.7046,-0.7046,-0.7046,-0.7046,-0.7046,-0.7046,-0.6834,-0.6859,-0.6863,-0.6894,-0.6903,-0.6925,-0.6934,-0.6947,-0.6958,-0.6985,-0.7002,-0.7009,-0.7023,-0.7044,-0.7062,-0.7066,-0.7072,-0.7077,-0.708,-0.7053,-0.7049,-0.7046,-0.704,-0.7079,-0.7079,-0.7107,-0.7107,-0.7107]},{"header":{"parameterUnit":"m.s-1","parameterCategory":1,"la1":30.2991,"la2":30.254,"lo1":-89.0895,"lo2":-89.0444,"dy":0.0017,"dx":0.0017,"nx":28,"ny":28,"refTime":"2024-03-14T21:00:00:Z","depth":0,"parameterNumber":3,"parameterNumberName":"V-component_of_WINDS"},"data":[0,0,0,0,0,0,0,0,0,0,0,0,0,0,0,0,0,0,0,0,0,0,0,0,0,0,0,0,0,0,0,0,0,0,0,0,0,0,0,0,0,0,0,0,0,0,0,0,0,0,0,0,0,0,0,0,0,0,2.2251,2.2252,0,2.2321,2.2322,2.2322,2.2363,2.2363,2.2363,2.2364,2.2435,2.2437,2.2439,0,0,0,0,0,0,0,0,0,0,0,0,0,2.2154,2.2156,2.2251,2.2252,2.2253,2.2321,2.2322,2.2323,2.2363,2.2363,2.2364,2.2364,2.2435,2.2437,2.2439,0,0,0,0,0,0,0,0,0,0,0,0,0,2.2207,2.2156,2.2251,2.2281,2.2284,2.232,2.2322,2.2323,2.2363,2.2363,2.2364,2.2364,2.2434,2.2437,2.2439,2.2451,0,0,2.2447,2.2448,0,0,0,0,0,0,0,0,2.2204,2.2211,2.2276,2.2279,2.2283,2.2334,2.2314,2.2366,2.2363,2.2333,2.2364,2.2364,2.2401,2.2407,2.2419,2.2454,2.2457,2.2448,2.2449,2.245,2.2451,0,0,0,0,0,0,0,2.2201,2.2208,2.2279,2.2277,2.2281,2.2292,2.23,2.2324,2.2365,2.2336,2.2339,2.2347,2.2403,2.2417,2.2421,2.2458,2.2447,2.245,2.2451,2.2452,2.2508,2.2508,0,0,0,0,0,0,2.2192,2.2205,2.2276,2.2281,2.2243,2.2293,2.2302,2.2317,2.2365,2.2372,2.2346,2.2348,2.2412,2.2418,2.2424,2.2442,2.245,2.2453,2.2454,2.2509,2.2508,2.2508,0,0,0,0,0,0,2.219,2.2198,2.2274,2.2244,2.2254,2.2295,2.2311,2.2318,2.2332,2.2373,2.238,2.2352,2.2412,2.242,2.2444,2.2445,2.2454,2.2456,2.2509,2.2508,2.2508,2.2477,0,0,0,0,0,0,2.2187,2.2197,2.2201,2.2243,2.2256,2.2292,2.2311,2.2319,2.2336,2.2339,2.238,2.2387,2.2413,2.244,2.2447,2.2449,2.2458,2.2509,2.2509,2.2508,2.2478,2.2476,2.2474,0,0,0,0,0,2.2183,2.2189,2.2201,2.2209,2.2261,2.2292,2.2299,2.2328,2.2336,2.2341,2.2368,2.2386,2.2444,2.2442,2.245,2.2453,2.2509,2.2509,2.2508,2.2479,2.2476,2.2474,0,0,0,0,0,0,2.2145,2.2195,2.2209,2.2228,2.2256,2.2299,2.2306,2.2324,2.235,2.2351,2.2387,2.2396,2.2417,2.2437,2.2435,2.2468,2.2479,2.248,2.2453,2.2451,2.2449,2.2444,2.2461,0,0,0,0,0,2.2139,2.2159,2.2202,2.2215,2.2228,2.2264,2.2279,2.2299,2.2329,2.2341,2.2369,2.2398,2.2423,2.2438,2.2463,2.2481,2.2492,2.2487,2.2485,2.2483,2.2484,2.2498,2.2497,2.2508,2.2508,2.2508,0,0,2.2126,2.2156,2.2166,2.2208,2.2231,2.2252,2.2274,2.2294,2.2311,2.2344,2.2369,2.2391,2.2425,2.2447,2.2458,2.2465,2.2484,2.2483,2.2481,2.2483,2.2497,2.2496,2.2495,2.2507,2.2507,2.2508,0,0,2.2114,2.2138,2.2153,2.2176,2.2212,2.2237,2.224,2.2281,2.2297,2.2323,2.2349,2.2369,2.241,2.2434,2.2452,2.2451,2.247,2.2459,2.2447,2.246,2.2459,2.2458,2.246,2.2459,2.2459,2.2459,2.2459,0,2.2094,2.2126,2.2158,2.2178,2.2196,2.2228,2.2243,2.2265,2.2307,2.2319,2.2326,2.238,2.2405,2.2434,2.2434,2.2447,2.2453,2.2454,2.2457,2.2456,2.2456,2.2458,2.2458,2.2458,2.2458,2.2458,2.2458,0,2.21,2.2122,2.213,2.217,2.219,2.2207,2.2243,2.2258,2.2278,2.2302,2.2329,2.236,2.2393,2.2402,2.242,2.2434,2.2437,2.245,2.2461,2.2453,2.2455,2.2456,2.2455,2.2456,2.2457,2.2457,0,0,2.2064,2.2124,2.2126,2.2146,2.2189,2.2207,2.2227,2.226,2.2273,2.2301,2.232,2.2355,2.2368,2.2388,2.241,2.2421,2.2421,2.2433,2.2434,2.243,2.244,2.243,2.243,2.2433,2.2434,2.2434,2.2437,0,2.2059,2.2096,2.2127,2.2153,2.2175,2.2207,2.2224,2.2253,2.2277,2.2299,2.2326,2.2351,2.2365,2.2377,2.239,2.2418,2.2423,2.2418,2.2452,2.2453,2.2443,2.2431,2.2421,2.2422,2.2438,2.2438,2.2438,0,2.2058,2.2086,2.2115,2.2157,2.2168,2.2183,2.2217,2.2237,2.2271,2.2288,2.2311,2.2335,2.2359,2.2368,2.2402,2.2398,2.2414,2.243,2.2431,2.2435,2.2445,2.2436,2.2423,2.2424,2.244,2.2439,2.2439,0,2.2031,2.2076,2.2099,2.2115,2.2165,2.2175,2.2197,2.2231,2.2249,2.2279,2.2291,2.2323,2.234,2.2365,2.2397,2.24,2.2428,2.244,2.2443,2.2442,2.2448,2.2447,2.2438,2.2457,2.2457,2.2457,2.2456,0,2.2022,2.2039,2.2088,2.2102,2.2123,2.2158,2.2177,2.2201,2.2232,2.2252,2.2281,2.23,2.2341,2.2365,2.239,2.2415,2.2422,2.2437,2.2444,2.2435,2.2433,2.2446,2.2447,2.2457,2.2457,2.2457,2.2457,0,2.1995,2.2028,2.2057,2.2102,2.2114,2.2127,2.2167,2.2183,2.2209,2.2234,2.2242,2.2283,2.2313,2.2347,2.2388,2.2405,2.2429,2.2438,2.2418,2.2421,2.2424,2.2423,2.2423,2.2425,2.2441,2.2441,2.2441,0,2.1988,2.2001,2.2049,2.2065,2.2086,2.2111,2.213,2.2166,2.2185,2.2226,2.2237,2.227,2.2297,2.2344,2.2378,2.241,2.242,2.2418,2.2425,2.2417,2.2422,2.2421,2.2423,2.2416,2.2416,2.2415,2.2415,0,2.1971,2.1988,2.2015,2.2048,2.207,2.2098,2.2127,2.2138,2.218,2.22,2.2232,2.2253,2.2296,2.2328,2.2364,2.2387,2.2409,2.2413,2.2415,2.2407,2.2395,2.2402,2.2413,2.2412,2.2413,2.2413,2.2413,2.2413,2.1955,2.1969,2.2006,2.2035,2.2061,2.2088,2.2105,2.2134,2.2161,2.2199,2.2218,2.225,2.2285,2.2337,2.2359,2.2385,2.2392,2.2395,2.2396,2.2397,2.2395,2.239,2.2391,2.2392,2.2392,2.2392,2.2392,0,2.1941,2.1967,2.1993,2.2034,2.2057,2.2075,2.2109,2.2127,2.2155,2.2186,2.2213,2.225,2.2282,2.2319,2.2353,2.2367,2.2378,2.2375,2.2374,2.238,2.2386,2.2381,2.2366,2.2366,2.2366,2.2366,2.2366,2.2366,2.1937,2.1963,2.1984,2.2024,2.2049,2.208,2.2098,2.2124,2.2149,2.2189,2.2216,2.224,2.2274,2.2311,2.2342,2.2352,2.2364,2.2358,2.2371,2.2377,2.2379,2.2381,2.2376,2.236,2.236,2.2363,2.2363,2.2363]}]]